When you browse on this site, cookies collect data to enhance your experience and personalize the content and advertising you see.
Visit our Privacy Policy to learn more. By continuing to use the site, you agree to this use of cookies and data.
  • In Hungary
  • List of Countries
  • For 7 days
  • Water Temperature
  • Satellite Maps
  • Weather Map
  • News
  • Weather Widgets
  • user-avatar
    Login

    Hourly Weather Managua

    Today, 18 November, Sunday

    Time Temperature Precipitation Wind Pressure Humidity
    00:00 +27°C° 0 mm 4 mps 753 mmHg 78%
    01:00 +27°C° 0 mm 3 mps 753 mmHg 78%
    02:00 +27°C° 0 mm 3 mps 753 mmHg 79%
    03:00 +27°C° 0 mm 3 mps 752 mmHg 79%
    04:00 +26°C° 0 mm 3 mps 753 mmHg 79%
    05:00 +26°C° 0 mm 3 mps 753 mmHg 80%
    06:00 +26°C° 0 mm 3 mps 753 mmHg 80%
    07:00 +28°C° 0 mm 4 mps 754 mmHg 74%
    08:00 +30°C° 0 mm 4 mps 754 mmHg 68%
    09:00 +32°C° 0 mm 5 mps 754 mmHg 62%
    10:00 +33°C° 0 mm 6 mps 754 mmHg 59%
    11:00 +34°C° 0 mm 6 mps 753 mmHg 57%
    12:00 +35°C° 0 mm 6 mps 753 mmHg 54%
    13:00 +35°C° 0 mm 6 mps 752 mmHg 55%
    14:00 +35°C° 0 mm 5 mps 752 mmHg 56%
    15:00 +35°C° 0 mm 5 mps 751 mmHg 57%
    16:00 +33°C° 0 mm 5 mps 751 mmHg 62%
    17:00 +32°C° 0 mm 4 mps 751 mmHg 66%
    18:00 +30°C° 0 mm 4 mps 752 mmHg 71%
    19:00 +29°C° 0 mm 4 mps 752 mmHg 73%
    20:00 +29°C° 0 mm 4 mps 753 mmHg 75%
    21:00 +28°C° 0 mm 3 mps 754 mmHg 77%
    22:00 +28°C° 0 mm 3 mps 754 mmHg 78%
    23:00 +27°C° 0 mm 3 mps 753 mmHg 79%

    Tomorrow, 19 November, Monday

    Time Temperature Precipitation Wind Pressure Humidity
    00:00 +27°C° 0 mm 3 mps 753 mmHg 80%
    01:00 +27°C° 0 mm 3 mps 753 mmHg 80%
    02:00 +27°C° 0 mm 3 mps 753 mmHg 80%
    03:00 +26°C° 0 mm 3 mps 752 mmHg 80%
    04:00 +26°C° 0 mm 3 mps 752 mmHg 80%
    05:00 +26°C° 0 mm 3 mps 753 mmHg 80%
    06:00 +26°C° 0 mm 3 mps 753 mmHg 80%
    07:00 +28°C° 0 mm 4 mps 753 mmHg 74%
    08:00 +30°C° 0 mm 5 mps 754 mmHg 69%
    09:00 +32°C° 0 mm 5 mps 754 mmHg 63%
    10:00 +33°C° 0 mm 6 mps 754 mmHg 60%
    11:00 +34°C° 0 mm 6 mps 753 mmHg 57%
    12:00 +35°C° 0 mm 6 mps 753 mmHg 54%
    13:00 +35°C° 0 mm 6 mps 752 mmHg 54%
    14:00 +35°C° 0 mm 5 mps 751 mmHg 55%
    15:00 +35°C° 0 mm 5 mps 751 mmHg 56%
    16:00 +33°C° 0 mm 5 mps 751 mmHg 61%
    17:00 +32°C° 0 mm 4 mps 751 mmHg 65%
    18:00 +29°C° 0 mm 3 mps 752 mmHg 70%
    19:00 +29°C° 0 mm 3 mps 752 mmHg 72%
    20:00 +28°C° 0 mm 3 mps 753 mmHg 73%
    21:00 +28°C° 0 mm 3 mps 754 mmHg 75%
    22:00 +28°C° 0 mm 3 mps 754 mmHg 76%
    23:00 +27°C° 0 mm 3 mps 754 mmHg 77%

    Day after tomorrow, 20 November, Tuesday

    Time Temperature Precipitation Wind Pressure Humidity
    00:00 +27°C° 0 mm 3 mps 753 mmHg 79%
    01:00 +27°C° 0 mm 3 mps 753 mmHg 79%
    02:00 +27°C° 0 mm 3 mps 753 mmHg 80%
    03:00 +26°C° 0 mm 3 mps 752 mmHg 81%
    04:00 +26°C° 0 mm 3 mps 752 mmHg 81%
    05:00 +26°C° 0 mm 3 mps 753 mmHg 81%
    06:00 +26°C° 0 mm 3 mps 753 mmHg 81%
    07:00 +28°C° 0 mm 3 mps 753 mmHg 76%
    08:00 +29°C° 0 mm 4 mps 754 mmHg 70%
    09:00 +32°C° 0 mm 5 mps 755 mmHg 64%
    10:00 +33°C° 0 mm 5 mps 754 mmHg 61%
    11:00 +34°C° 0 mm 5 mps 753 mmHg 57%
    12:00 +35°C° 0 mm 5 mps 753 mmHg 53%
    13:00 +35°C° 0 mm 5 mps 752 mmHg 54%
    14:00 +35°C° 0 mm 5 mps 752 mmHg 55%
    15:00 +35°C° 0 mm 5 mps 751 mmHg 55%
    16:00 +33°C° 0 mm 5 mps 751 mmHg 60%
    17:00 +32°C° 0 mm 4 mps 752 mmHg 65%
    18:00 +29°C° 0 mm 4 mps 752 mmHg 70%
    19:00 +29°C° 0 mm 4 mps 753 mmHg 72%
    20:00 +28°C° 0 mm 4 mps 754 mmHg 75%
    21:00 +28°C° 0 mm 4 mps 755 mmHg 77%
    22:00 +27°C° 0 mm 3 mps 754 mmHg 78%
    23:00 +27°C° 0 mm 3 mps 754 mmHg 78%

    21 November, Wednesday

    Time Temperature Precipitation Wind Pressure Humidity
    00:00 +27°C° 0 mm 3 mps 754 mmHg 79%
    01:00 +27°C° 0 mm 3 mps 754 mmHg 79%
    02:00 +27°C° 0 mm 3 mps 753 mmHg 79%
    03:00 +27°C° 0 mm 3 mps 753 mmHg 79%
    04:00 +27°C° 0 mm 3 mps 753 mmHg 78%
    05:00 +27°C° 0 mm 3 mps 754 mmHg 78%
    06:00 +27°C° 0 mm 3 mps 754 mmHg 78%
    07:00 +28°C° 0 mm 4 mps 754 mmHg 72%
    08:00 +30°C° 0 mm 5 mps 755 mmHg 66%
    09:00 +32°C° 0 mm 6 mps 755 mmHg 61%
    10:00 +33°C° 0 mm 6 mps 754 mmHg 58%
    11:00 +34°C° 0 mm 6 mps 754 mmHg 56%
    12:00 +35°C° 0 mm 6 mps 753 mmHg 53%
    13:00 +35°C° 0 mm 6 mps 753 mmHg 54%
    14:00 +34°C° 0 mm 5 mps 752 mmHg 55%
    15:00 +34°C° 0 mm 5 mps 751 mmHg 57%
    16:00 +33°C° 0 mm 5 mps 752 mmHg 61%
    17:00 +32°C° 0 mm 4 mps 752 mmHg 64%
    18:00 +29°C° 0 mm 4 mps 753 mmHg 68%
    19:00 +29°C° 0 mm 4 mps 753 mmHg 70%
    20:00 +28°C° 0 mm 4 mps 754 mmHg 72%
    21:00 +28°C° 0 mm 4 mps 754 mmHg 73%
    22:00 +28°C° 0 mm 4 mps 754 mmHg 75%
    23:00 +27°C° 0 mm 3 mps 754 mmHg 76%

    22 November, Thursday

    Time Temperature Precipitation Wind Pressure Humidity
    00:00 +27°C° 0 mm 3 mps 754 mmHg 78%
    01:00 +27°C° 0 mm 3 mps 753 mmHg 78%
    02:00 +27°C° 0 mm 3 mps 753 mmHg 79%
    03:00 +26°C° 0 mm 3 mps 752 mmHg 80%
    04:00 +26°C° 0 mm 2 mps 753 mmHg 81%
    05:00 +25°C° 0 mm 2 mps 753 mmHg 82%
    06:00 +25°C° 0 mm 2 mps 754 mmHg 83%
    07:00 +27°C° 0 mm 3 mps 754 mmHg 75%
    08:00 +29°C° 0 mm 4 mps 754 mmHg 67%
    09:00 +32°C° 0 mm 4 mps 755 mmHg 59%
    10:00 +33°C° 0 mm 4 mps 754 mmHg 54%
    11:00 +35°C° 0 mm 5 mps 753 mmHg 49%
    12:00 +36°C° 0 mm 5 mps 753 mmHg 45%
    13:00 +36°C° 0 mm 5 mps 752 mmHg 45%
    14:00 +36°C° 0 mm 5 mps 751 mmHg 46%
    15:00 +35°C° 0 mm 4 mps 751 mmHg 47%
    16:00 +34°C° 0 mm 4 mps 751 mmHg 53%
    17:00 +31°C° 0 mm 3 mps 752 mmHg 59%
    18:00 +30°C° 0 mm 3 mps 752 mmHg 65%
    19:00 +29°C° 0 mm 3 mps 753 mmHg 68%
    20:00 +28°C° 0 mm 3 mps 753 mmHg 71%
    21:00 +28°C° 0 mm 3 mps 754 mmHg 74%
    22:00 +28°C° 0 mm 3 mps 753 mmHg 76%
    23:00 +27°C° 0 mm 4 mps 753 mmHg 78%

    23 November, Friday

    Time Temperature Precipitation Wind Pressure Humidity
    00:00 +27°C° 0 mm 4 mps 753 mmHg 79%
    01:00 +26°C° 0 mm 4 mps 752 mmHg 80%
    02:00 +26°C° 0 mm 3 mps 752 mmHg 80%
    03:00 +26°C° 0 mm 3 mps 752 mmHg 81%
    04:00 +26°C° 0 mm 3 mps 752 mmHg 81%
    05:00 +25°C° 0 mm 3 mps 752 mmHg 80%
    06:00 +25°C° 0 mm 3 mps 753 mmHg 79%
    07:00 +27°C° 0 mm 3 mps 753 mmHg 73%
    08:00 +29°C° 0 mm 4 mps 754 mmHg 66%
    09:00 +32°C° 0 mm 5 mps 754 mmHg 59%
    10:00 +33°C° 0 mm 5 mps 753 mmHg 57%
    11:00 +34°C° 0 mm 5 mps 753 mmHg 54%
    12:00 +35°C° 0 mm 5 mps 752 mmHg 51%
    13:00 +35°C° 0 mm 5 mps 751 mmHg 51%
    14:00 +35°C° 0 mm 4 mps 751 mmHg 52%
    15:00 +35°C° 0 mm 4 mps 750 mmHg 52%
    16:00 +34°C° 0 mm 4 mps 750 mmHg 58%
    17:00 +31°C° 0 mm 3 mps 751 mmHg 63%
    18:00 +30°C° 0 mm 3 mps 751 mmHg 68%
    19:00 +29°C° 0 mm 3 mps 752 mmHg 70%
    20:00 +29°C° 0 mm 3 mps 753 mmHg 72%
    21:00 +28°C° 0 mm 3 mps 753 mmHg 74%
    22:00 +28°C° 0 mm 3 mps 753 mmHg 76%
    23:00 +27°C° 0 mm 3 mps 753 mmHg 78%
    Show more